G6FJI-13 Weather Reports


time (UTC)temp
F
wind
direction
speed
knots
gust
knots
rain 1hr
in
rain 24hr
in
rain mn
in
humidity
%
barometer
mb
20260506031937 46 160 0.9 0.9 0.00 0.00 0.00 81 1016.7
20260506031022 46 160 1.7 1.7 0.00 0.00 0.00 81 1016.6
20260506025958 47 168 0.9 1.7 0.00 0.00 0.00 80 1016.7
20260506025043 47 139 1.7 4.3 0.00 0.00 0.00 81 1016.6
20260506023939 47 169 0.9 0.9 0.00 0.00 0.00 81 1016.7
20260506022935 47 139 0.9 2.6 0.00 0.00 0.00 81 1016.7
20260506021946 47 165 0.0 0.9 0.00 0.00 0.00 84 1016.6
20260506020900 48 0.0 1.7 0.00 0.00 0.00 84 1016.6
20260506015925 48 0.0 0.9 0.00 0.00 0.00 83 1016.7
20260506014901 48 148 0.0 0.9 0.00 0.00 0.00 83 1016.5
20260506013824 48 139 0.9 1.7 0.00 0.00 0.00 82 1016.6
20260506012822 48 146 0.9 0.9 0.00 0.00 0.00 81 1016.6
20260506011738 48 180 1.7 1.7 0.00 0.00 0.00 81 1016.8
20260506010843 48 150 0.0 0.9 0.00 0.00 0.00 80 1017.1
20260506005739 48 166 0.0 2.6 0.00 0.00 0.00 79 1016.6
20260506004824 48 195 0.9 2.6 0.00 0.00 0.00 79 1016.8
20260506003740 48 142 1.7 2.6 0.00 0.00 0.00 79 1016.7
20260506002824 49 166 0.9 0.9 0.00 0.00 0.00 81 1016.7
20260506001740 49 186 0.9 1.7 0.00 0.00 0.00 81 1016.7
20260506000825 49 202 2.6 2.6 0.00 0.00 0.00 81 1016.6
20260505235741 50 175 1.7 2.6 0.00 0.00 0.00 82 1016.7
20260505234826 50 161 0.0 0.9 0.00 0.00 0.00 83 1016.7
20260505233742 50 186 0.9 1.7 0.00 0.00 0.00 82 1016.8
20260505232827 50 173 0.9 1.7 0.00 0.00 0.00 82 1016.7
20260505231743 50 166 0.9 1.7 0.00 0.00 0.00 81 1016.7
20260505230727 50 160 1.7 1.7 0.00 0.00 0.00 82 1016.8
20260505225643 51 174 0.9 0.9 0.00 0.00 0.00 82 1016.6
20260505224728 51 70 0.0 1.7 0.00 0.00 0.00 81 1016.4
20260505223645 51 187 0.9 1.7 0.00 0.00 0.00 80 1016.8
20260505222809 51 186 0.9 2.6 0.00 0.00 0.00 79 1016.9
20260505221645 51 51 0.9 1.7 0.00 0.00 0.00 79 1016.7
20260505220750 51 51 0.9 1.7 0.00 0.00 0.00 78 1016.7
20260505215707 52 50 1.7 4.3 0.00 0.00 0.00 77 1016.3
20260505214730 52 167 0.9 2.6 0.00 0.00 0.00 76 1016.7
20260505213647 52 145 1.7 2.6 0.00 0.00 0.00 76 1016.4
20260505212731 53 163 0.9 1.7 0.00 0.00 0.00 77 1016.5
20260505211708 53 172 0.9 1.7 0.00 0.00 0.00 77 1016.3
20260505210604 53 147 2.6 2.6 0.00 0.00 0.00 76 1016.2
20260505205533 54 178 0.9 1.7 0.00 0.00 0.00 76 1015.9
20260505204625 55 147 0.9 1.7 0.00 0.00 0.00 74 1016.0
20260505203534 54 154 0.0 0.9 0.00 0.00 0.00 72 1015.8
20260505202626 54 155 0.0 0.9 0.00 0.00 0.00 71 1015.8
20260505201555 55 147 0.0 0.9 0.00 0.00 0.00 70 1015.7
20260505200607 55 165 0.9 1.7 0.00 0.00 0.00 70 1015.8
20260505195536 55 152 0.9 0.9 0.00 0.00 0.00 70 1015.9
20260505194607 55 138 0.9 1.7 0.00 0.00 0.00 68 1015.6
20260505193536 55 133 0.0 1.7 0.00 0.00 0.00 70 1015.5
20260505192628 55 136 0.9 0.9 0.00 0.00 0.00 71 1015.4
20260505191537 56 152 0.0 1.7 0.00 0.00 0.00 69 1015.4
20260505190610 56 157 0.0 0.9 0.00 0.00 0.00 69 1015.4
20260505185537 56 156 0.9 1.7 0.00 0.00 0.00 68 1015.3
20260505184610 56 113 0.9 0.9 0.00 0.00 0.00 68 1015.1
20260505183539 57 99 0.9 0.9 0.00 0.00 0.00 68 1015.1
20260505182611 57 136 1.7 1.7 0.00 0.00 0.00 68 1015.3
20260505181539 57 131 0.9 0.9 0.00 0.00 0.00 68 1015.1
20260505180612 57 153 0.9 2.6 0.00 0.00 0.00 67 1015.1
20260505175541 57 143 0.9 1.7 0.00 0.00 0.00 68 1015.0
20260505174612 57 156 0.9 1.7 0.00 0.00 0.00 67 1015.3
20260505173541 57 173 0.9 0.9 0.00 0.00 0.00 66 1015.2
20260505172613 58 136 0.9 4.3 0.00 0.00 0.00 68 1015.2
20260505171542 58 131 0.9 2.6 0.00 0.00 0.00 67 1015.2
20260505170614 58 119 0.9 2.6 0.00 0.00 0.00 67 1015.2
20260505165604 58 132 0.9 2.6 0.00 0.00 0.00 67 1015.6
20260505164443 58 135 0.9 4.3 0.00 0.00 0.00 66 1015.2
20260505163359 58 103 2.6 2.6 0.00 0.00 0.00 67 1015.4
20260505162412 58 161 0.9 2.6 0.00 0.00 0.00 67 1015.3
20260505161401 58 112 0.9 2.6 0.00 0.00 0.00 66 1015.3
20260505160413 58 114 2.6 5.2 0.00 0.00 0.00 66 1015.2
20260505153342 59 212 2.6 2.6 0.00 0.00 0.00 64 1015.4
20260505152259 59 137 0.9 2.6 0.00 0.00 0.00 65 1015.4
20260505151418 59 133 0.9 1.7 0.00 0.00 0.00 63 1015.4
20260505150238 59 116 1.7 4.3 0.00 0.00 0.00 65 1015.3
20260505140213 60 131 0.0 0.9 0.00 0.00 0.00 63 1015.7
20260505130116 60 181 0.9 1.7 0.00 0.00 0.00 64 1015.9
20260505124118 59 187 0.9 1.7 0.00 0.00 0.00 66 1015.6
20260505123045 60 167 0.0 1.7 0.00 0.00 0.00 64 1015.8
20260505121946 60 147 0.9 1.7 0.00 0.00 0.00 66 1016.0
20260505121019 60 147 1.7 2.6 0.00 0.00 0.00 64 1015.8
20260505120027 61 140 0.9 1.7 0.00 0.00 0.00 63 1015.9
20260505115020 61 0.0 0.9 0.00 0.00 0.00 64 1015.8
20260505113948 59 134 0.9 2.6 0.00 0.00 0.00 69 1015.9
20260505112925 58 195 0.9 4.3 0.00 0.00 0.00 68 1016.0
20260505111821 59 128 0.9 1.7 0.00 0.00 0.00 68 1016.3
20260505110905 60 194 1.7 2.6 0.00 0.00 0.00 67 1016.1
20260505101843 57 192 2.6 4.3 0.00 0.00 0.00 73 1016.7
20260505100907 57 168 0.9 1.7 0.00 0.00 0.00 74 1016.5
20260505095824 56 0.0 0.9 0.00 0.00 0.00 77 1016.6
20260505094909 56 154 0.9 1.7 0.00 0.00 0.00 76 1016.6
20260505093825 55 186 0.9 0.9 0.00 0.00 0.00 78 1016.7
20260505092929 55 170 0.0 1.7 0.00 0.00 0.00 78 1016.5
20260505091847 55 100 0.9 0.9 0.00 0.00 0.00 79 1016.6
20260505090910 55 170 0.9 1.7 0.00 0.00 0.00 78 1016.7
20260505085827 56 172 0.0 1.7 0.00 0.00 0.00 76 1016.7
20260505084910 55 131 0.0 0.9 0.00 0.00 0.00 78 1016.6
20260505083828 54 157 1.7 1.7 0.00 0.00 0.00 79 1016.7
20260505082911 52 141 1.7 4.3 0.00 0.00 0.00 81 1016.9
20260505081828 53 124 1.7 1.7 0.00 0.00 0.00 80 1017.0
20260505080756 52 134 0.9 5.2 0.00 0.00 0.00 80 1016.9
20260505075728 52 139 0.9 2.6 0.00 0.00 0.00 82 1017.0
20260505074813 50 150 0.9 1.7 0.00 0.00 0.00 84 1016.9
20260505073730 50 0.0 0.9 0.00 0.00 0.00 87 1016.8
20260505072813 49 139 0.0 1.7 0.00 0.00 0.00 88 1016.9
20260505071730 49 136 0.9 0.9 0.00 0.00 0.00 89 1016.9
20260505070814 48 133 0.9 1.7 0.00 0.00 0.00 90 1016.9
20260505065731 48 119 0.0 1.7 0.00 0.00 0.00 93 1016.9
20260505064816 48 0.0 0.9 0.00 0.00 0.00 94 1017.0
20260505063732 48 142 0.0 0.9 0.00 0.00 0.00 96 1017.0
20260505062816 48 113 1.7 1.7 0.00 0.00 0.00 97 1017.0
20260505061733 48 0.0 0.9 0.00 0.00 0.00 98 1017.1
20260505060818 47 0.0 0.0 0.00 0.00 0.00 98 1017.0
20260505055734 46 0.0 0.0 0.00 0.00 0.00 98 1017.2
20260505054703 46 0.0 0.0 0.00 0.00 0.00 98 1017.4
20260505053636 46 0.0 0.0 0.00 0.00 0.00 98 1017.3
20260505052739 46 0.0 0.0 0.00 0.00 0.00 98 1017.4
20260505051735 46 0.0 0.0 0.00 0.00 0.00 98 1017.2
20260505050720 45 0.0 0.0 0.00 0.00 0.00 98 1017.4
20260505041606 45 312 0.0 0.9 0.00 0.00 0.00 98 1017.3
20260505040522 45 289 0.0 0.9 0.00 0.00 0.00 98 1017.2
20260505035647 44 0.0 0.0 0.00 0.00 0.00 98 1017.1
20260505034523 44 0.0 0.0 0.00 0.00 0.00 97 1017.0
20260505033627 44 0.0 0.0 0.00 0.00 0.00 97 1016.9
20260505032524 44 0.0 0.0 0.00 0.00 0.00 97 1016.9